Skip Page Navigation
NASA JPL Caltech
NASA Logo - Jet Propulsion Laboratory + View the NASA Portal
+ Center for Near-Earth Object Studies
JPL Home Earth Solar System Stars & Galaxies Technology
JPL Solar System Dynamics
BODIES ORBITS EPHEMERIDES TOOLS PHYSICAL DATA DISCOVERY FAQ SITE MAP
JPL Small-Body Database Browser
Search: [ help ]  
266565 (2008 GZ76)
Classification: Main-belt Asteroid          SPK-ID: 2266565
Ephemeris | Orbit Diagram | Orbital Elements | Mission Design | Physical Parameters | Discovery Circumstances ]

[ show orbit diagram ]
Orbital Elements at Epoch 2459000.5 (2020-May-31.0) TDB
Reference: JPL 15 (heliocentric ecliptic J2000)
 Element Value Uncertainty (1-sigma)   Units 
e .1313283400477788 4.8893e-08  
a 2.27845651664133 1.8823e-08 au
q 1.97923060443978 1.1018e-07 au
i 10.03055654871264 6.0923e-06 deg
node 64.28076310192378 3.7047e-05 deg
peri 47.80293043088565 4.6399e-05 deg
M 274.5066687490342 2.9551e-05 deg
tp 2459298.824748265848
(2021-Mar-25.32474827)
0.00010453 TDB
period 1256.202183307625
3.44
1.5566e-05
4.262e-08
d
yr
n .2865780722113595 3.5512e-09 deg/d
Q 2.577682428842881 2.1295e-08 au
  Orbit Determination Parameters
   # obs. used (total)      296  
   data-arc span      6202 days (16.98 yr)  
   first obs. used      2001-04-17  
   last obs. used      2018-04-10  
   planetary ephem.      DE431  
   SB-pert. ephem.      SB431-N16  
   condition code      0  
   norm. resid. RMS      .55425  
   source      ORB  
   producer      Otto Matic  
   solution date      2019-Jul-14 10:51:13  

Additional Information
 Earth MOID = 1.01042 au 
 Jupiter MOID = 2.57147 au 
 T_jup = 3.576 
[ show covariance matrix ]

Ephemeris | Orbit Diagram | Orbital Elements | Mission Design | Physical Parameters | Discovery Circumstances ]

Physical Parameter Table
Parameter Symbol Value Units Sigma Reference Notes
absolute magnitude H 17.0   n/a MPO338791  

266565 (2008 GZ76)          Discovered 2008-Apr-07 by Spacewatch at Kitt Peak
Reference: 20110218/Numbers.arcLast Updated: 2011-02-22

Alternate Designations
 2008 GZ76 = 2003 YA134 
Ephemeris | Orbit Diagram | Orbital Elements | Mission Design | Physical Parameters | Discovery Circumstances ]
ABOUT SSD CREDITS/AWARDS PRIVACY/COPYRIGHT GLOSSARY LINKS
FirstGov 2020-Aug-03 15:31 UT
(server date/time)  
NASA Home Page
Site Manager:   Ryan S. Park
Webmaster  Alan B. Chamberlin